TimeAEST,TemperatureF,Dew PointF,Humidity,Sea Level PressureIn,VisibilityMPH,Wind Direction,Wind SpeedMPH,Gust SpeedMPH,PrecipitationIn,Events,Conditions,WindDirDegrees,DateUTC
12:00 AM,74,67,72,29.97,,SSE,5.8,,,,,160,2012-11-24 14:00:00
12:00 AM,75.2,66.2,73,29.95,6.2,SSE,5.8,-,N/A,,Partly Cloudy,160,2012-11-24 14:00:00
12:30 AM,75.2,66.2,73,29.95,6.2,SE,8.1,-,N/A,,Partly Cloudy,140,2012-11-24 14:30:00
1:00 AM,74,67,72,29.96,,SSE,6.9,,,,,160,2012-11-24 15:00:00
1:00 AM,73.4,66.2,78,29.95,6.2,SSE,6.9,-,N/A,,Partly Cloudy,160,2012-11-24 15:00:00
1:30 AM,73.4,66.2,78,29.92,6.2,SE,6.9,-,N/A,,Partly Cloudy,130,2012-11-24 15:30:00
2:00 AM,73.4,66.2,78,29.92,6.2,SSE,5.8,-,N/A,,Partly Cloudy,160,2012-11-24 16:00:00
2:30 AM,71.6,66.2,83,29.92,6.2,SE,8.1,-,N/A,,Partly Cloudy,140,2012-11-24 16:30:00
3:00 AM,71,67,83,29.92,,Calm,Calm,,,,,,2012-11-24 17:00:00
3:00 AM,71.6,66.2,83,29.92,6.2,Calm,Calm,-,N/A,,Partly Cloudy,0,2012-11-24 17:00:00
3:30 AM,69.8,68.0,94,29.92,6.2,West,3.5,-,N/A,,Unknown,270,2012-11-24 17:30:00
4:00 AM,70,67,86,29.92,,SSE,2.3,,,,,160,2012-11-24 18:00:00
4:00 AM,69.8,66.2,88,29.92,6.2,SSE,2.3,-,N/A,,Partly Cloudy,160,2012-11-24 18:00:00
4:30 AM,69.8,68.0,94,29.92,6.2,South,1.2,-,N/A,,Partly Cloudy,170,2012-11-24 18:30:00
5:00 AM,71.6,66.2,83,29.92,6.2,South,3.5,-,N/A,,Partly Cloudy,170,2012-11-24 19:00:00
5:30 AM,71.6,66.2,83,29.92,6.2,South,1.2,-,N/A,,Mostly Cloudy,180,2012-11-24 19:30:00
6:00 AM,71,67,85,29.94,19,SSE,4.6,,,,Partly Cloudy,150,2012-11-24 20:00:00
6:00 AM,71.6,68.0,88,29.92,6.2,SSE,4.6,-,N/A,,Partly Cloudy,150,2012-11-24 20:00:00
6:30 AM,73.4,68.0,83,29.95,6.2,SSW,4.6,-,N/A,,Partly Cloudy,200,2012-11-24 20:30:00
7:00 AM,77,67,63,29.96,,SSE,5.8,,,,,160,2012-11-24 21:00:00
7:00 AM,77.0,66.2,69,29.95,6.2,SSE,5.8,-,N/A,,Partly Cloudy,160,2012-11-24 21:00:00
7:30 AM,80.6,66.2,61,29.95,6.2,SSE,9.2,-,N/A,,Partly Cloudy,150,2012-11-24 21:30:00
8:00 AM,80.6,66.2,61,29.95,6.2,SSE,6.9,-,N/A,,Partly Cloudy,160,2012-11-24 22:00:00
8:30 AM,80.6,66.2,61,29.98,6.2,South,6.9,-,N/A,,Scattered Clouds,170,2012-11-24 22:30:00
9:00 AM,81,66,52,30.00,19,South,8.1,,,,Partly Cloudy,180,2012-11-24 23:00:00
9:00 AM,80.6,66.2,61,29.98,6.2,South,8.1,-,N/A,,Mostly Cloudy,180,2012-11-24 23:00:00
9:30 AM,82.4,66.2,58,29.98,6.2,South,9.2,-,N/A,,Mostly Cloudy,170,2012-11-24 23:30:00
10:00 AM,84,65,44,30.00,,SSE,9.2,,,,,150,2012-11-25 00:00:00
10:00 AM,84.2,66.2,55,29.98,6.2,SSE,9.2,-,N/A,,Mostly Cloudy,150,2012-11-25 00:00:00
10:30 AM,82.4,66.2,58,29.98,6.2,SE,17.3,-,N/A,,Mostly Cloudy,140,2012-11-25 00:30:00
11:00 AM,86.0,64.4,48,29.98,6.2,SSE,16.1,-,N/A,,Scattered Clouds,150,2012-11-25 01:00:00
11:30 AM,86.0,66.2,51,29.95,6.2,ESE,9.2,-,N/A,,Partly Cloudy,110,2012-11-25 01:30:00
12:00 PM,89,64,33,29.96,19,ESE,16.1,,,,Partly Cloudy,110,2012-11-25 02:00:00
12:00 PM,87.8,64.4,46,29.95,6.2,ESE,16.1,-,N/A,,Partly Cloudy,110,2012-11-25 02:00:00
12:30 PM,89.6,62.6,40,29.95,6.2,East,13.8,-,N/A,,Partly Cloudy,100,2012-11-25 02:30:00
1:00 PM,86,63,35,29.94,,East,16.1,,,,,100,2012-11-25 03:00:00
1:00 PM,86.0,62.6,45,29.92,6.2,East,16.1,-,N/A,,Partly Cloudy,100,2012-11-25 03:00:00
1:30 PM,89.6,62.6,40,29.92,6.2,East,16.1,-,N/A,,Partly Cloudy,90,2012-11-25 03:30:00
2:00 PM,89.6,64.4,43,29.89,6.2,ENE,16.1,-,N/A,,Partly Cloudy,60,2012-11-25 04:00:00
2:30 PM,87.8,64.4,46,29.89,6.2,NE,16.1,-,N/A,,Partly Cloudy,50,2012-11-25 04:30:00
3:00 PM,87,64,37,29.89,19,NE,13.8,,,,Partly Cloudy,50,2012-11-25 05:00:00
3:00 PM,87.8,64.4,46,29.89,6.2,NE,13.8,-,N/A,,Partly Cloudy,50,2012-11-25 05:00:00
3:30 PM,86.0,66.2,51,29.89,6.2,ENE,13.8,-,N/A,,Partly Cloudy,60,2012-11-25 05:30:00
4:00 PM,85,67,44,29.89,,ENE,15.0,,,,,60,2012-11-25 06:00:00
4:00 PM,86.0,66.2,51,29.89,6.2,ENE,15.0,-,N/A,,Partly Cloudy,60,2012-11-25 06:00:00
4:30 PM,84.2,62.6,48,29.89,6.2,ENE,13.8,-,N/A,,Partly Cloudy,60,2012-11-25 06:30:00
5:00 PM,84.2,66.2,55,29.89,6.2,East,12.7,-,N/A,,Partly Cloudy,90,2012-11-25 07:00:00
5:30 PM,82.4,66.2,58,29.89,6.2,ESE,15.0,-,N/A,,Partly Cloudy,120,2012-11-25 07:30:00
6:00 PM,82.4,68.0,62,29.92,6.2,ESE,11.5,-,N/A,,Partly Cloudy,110,2012-11-25 08:00:00
6:30 PM,80.6,68.0,65,29.92,6.2,SE,9.2,-,N/A,,Partly Cloudy,130,2012-11-25 08:30:00
7:00 PM,80,68,59,29.95,,SE,9.2,,,,,130,2012-11-25 09:00:00
7:00 PM,80.6,68.0,65,29.95,6.2,SE,9.2,-,N/A,,Partly Cloudy,130,2012-11-25 09:00:00
7:30 PM,78.8,68.0,69,29.95,6.2,SE,5.8,-,N/A,,Partly Cloudy,140,2012-11-25 09:30:00
8:00 PM,78.8,68.0,69,29.95,6.2,SSE,10.4,-,N/A,,Partly Cloudy,150,2012-11-25 10:00:00
8:30 PM,78.8,68.0,69,29.95,6.2,SSE,5.8,-,N/A,,Scattered Clouds,160,2012-11-25 10:30:00
9:00 PM,80,69,63,29.97,,ESE,8.1,,,,,110,2012-11-25 11:00:00
9:00 PM,80.6,69.8,70,29.98,6.2,ESE,8.1,-,N/A,Rain,Light Rain Showers,110,2012-11-25 11:00:00
9:30 PM,77.0,71.6,83,29.98,6.2,SSE,6.9,-,N/A,Rain,Light Rain Showers,160,2012-11-25 11:30:00
10:00 PM,78,71,73,29.99,,ESE,9.2,,,,,110,2012-11-25 12:00:00
10:00 PM,78.8,71.6,78,29.98,6.2,ESE,9.2,-,N/A,,Mostly Cloudy,110,2012-11-25 12:00:00
10:30 PM,78.8,69.8,74,29.98,6.2,SE,9.2,-,N/A,,Mostly Cloudy,130,2012-11-25 12:30:00
11:00 PM,78.8,69.8,74,29.98,6.2,SE,8.1,-,N/A,,Mostly Cloudy,130,2012-11-25 13:00:00
11:30 PM,78.8,68.0,69,29.98,6.2,SSE,6.9,-,N/A,,Scattered Clouds,160,2012-11-25 13:30:00